,,PressureMeas_1m,,PRMeasQMR101_1,,RHStat155_1m_1,,SRMeasQMS101R_1m,,TAStat155_1m_1,,GenWind_1,,GenWind_1,
2017-05-26, 07:00:07,VALID,916.738,VALID,0.0,VALID,98.1,VALID,55.25,VALID,20.692,VALID,117.0,VALID,1.207,
2017-05-26, 07:01:07,VALID,916.747,VALID,0.0,VALID,97.996,VALID,56.305,VALID,20.735,VALID,130.0,VALID,1.063,
2017-05-26, 07:02:07,VALID,916.75,VALID,0.0,VALID,97.803,VALID,58.105,VALID,20.759,VALID,126.0,VALID,0.947,
2017-05-26, 07:03:07,VALID,916.723,VALID,0.0,VALID,97.686,VALID,60.238,VALID,20.803,VALID,125.0,VALID,0.937,
2017-05-26, 07:04:07,VALID,916.693,VALID,0.0,VALID,97.626,VALID,62.823,VALID,20.853,VALID,111.0,VALID,0.828,
2017-05-26, 07:05:07,VALID,916.682,VALID,0.0,VALID,97.483,VALID,65.685,VALID,20.884,VALID,123.0,VALID,0.961,
2017-05-26, 07:06:07,VALID,916.675,VALID,0.0,VALID,97.228,VALID,70.006,VALID,20.913,VALID,110.0,VALID,1.012,
2017-05-26, 07:07:07,VALID,916.673,VALID,0.0,VALID,97.12,VALID,76.016,VALID,20.963,VALID,130.0,VALID,0.786,
2017-05-26, 07:08:07,VALID,916.666,VALID,0.0,VALID,96.861,VALID,79.113,VALID,20.99,VALID,118.0,VALID,0.766,
2017-05-26, 07:09:07,VALID,916.665,VALID,0.0,VALID,96.678,VALID,81.192,VALID,21.028,VALID,123.0,VALID,0.827,
2017-05-26, 07:10:07,VALID,916.657,VALID,0.0,VALID,96.517,VALID,83.627,VALID,21.064,VALID,129.0,VALID,0.876,
2017-05-26, 07:11:07,VALID,916.659,VALID,0.0,VALID,96.158,VALID,87.733,VALID,21.082,VALID,139.0,VALID,1.134,
2017-05-26, 07:12:07,VALID,916.675,VALID,0.0,VALID,95.812,VALID,94.107,VALID,21.087,VALID,155.0,VALID,1.247,
2017-05-26, 07:13:07,VALID,916.702,VALID,0.0,VALID,95.564,VALID,115.766,VALID,21.084,VALID,152.0,VALID,1.318,
2017-05-26, 07:14:07,VALID,916.712,VALID,0.0,VALID,95.631,VALID,140.644,VALID,21.098,VALID,147.0,VALID,0.971,
2017-05-26, 07:15:07,VALID,916.717,VALID,0.0,VALID,95.875,VALID,145.734,VALID,21.14,VALID,159.0,VALID,0.831,
2017-05-26, 07:16:07,VALID,916.734,VALID,0.0,VALID,95.712,VALID,164.849,VALID,21.157,VALID,146.0,VALID,1.211,
2017-05-26, 07:17:07,VALID,916.739,VALID,0.0,VALID,95.481,VALID,194.754,VALID,21.176,VALID,152.0,VALID,1.243,
2017-05-26, 07:18:07,VALID,916.74,VALID,0.0,VALID,95.515,VALID,209.749,VALID,21.212,VALID,150.0,VALID,1.113,
2017-05-26, 07:19:07,VALID,916.747,VALID,0.0,VALID,95.614,VALID,211.508,VALID,21.268,VALID,143.0,VALID,1.18,
2017-05-26, 07:20:07,VALID,916.783,VALID,0.0,VALID,95.367,VALID,210.53,VALID,21.345,VALID,140.0,VALID,1.291,
2017-05-26, 07:21:07,VALID,916.807,VALID,0.0,VALID,94.507,VALID,213.183,VALID,21.419,VALID,144.0,VALID,1.305,
2017-05-26, 07:22:07,VALID,916.83,VALID,0.0,VALID,94.438,VALID,216.577,VALID,21.505,VALID,140.0,VALID,1.334,
2017-05-26, 07:23:07,VALID,916.859,VALID,0.0,VALID,93.705,VALID,216.244,VALID,21.571,VALID,141.0,VALID,1.207,
2017-05-26, 07:24:07,VALID,916.854,VALID,0.0,VALID,93.719,VALID,218.756,VALID,21.636,VALID,138.0,VALID,1.269,
2017-05-26, 07:25:07,VALID,916.862,VALID,0.0,VALID,93.868,VALID,201.479,VALID,21.713,VALID,145.0,VALID,1.101,
2017-05-26, 07:26:07,VALID,916.861,VALID,0.0,VALID,93.652,VALID,172.825,VALID,21.773,VALID,146.0,VALID,1.05,
2017-05-26, 07:27:07,VALID,916.882,VALID,0.0,VALID,92.902,VALID,157.158,VALID,21.766,VALID,133.0,VALID,1.296,
2017-05-26, 07:28:07,VALID,916.911,VALID,0.0,VALID,93.017,VALID,158.492,VALID,21.776,VALID,143.0,VALID,0.975,
2017-05-26, 07:29:07,VALID,916.924,VALID,0.0,VALID,93.142,VALID,162.462,VALID,21.78,VALID,142.0,VALID,0.75,
2017-05-26, 07:30:07,VALID,916.955,VALID,0.0,VALID,93.555,VALID,170.343,VALID,21.816,VALID,128.0,VALID,0.7,
2017-05-26, 07:31:07,VALID,916.985,VALID,0.0,VALID,94.452,VALID,168.096,VALID,21.897,VALID,107.0,VALID,0.586,
2017-05-26, 07:32:07,VALID,917.011,VALID,0.0,VALID,94.058,VALID,170.51,VALID,21.974,VALID,86.0,VALID,0.489,
2017-05-26, 07:33:07,VALID,917.02,VALID,0.0,VALID,93.816,VALID,167.666,VALID,22.062,VALID,126.0,VALID,0.482,
2017-05-26, 07:34:07,VALID,917.033,VALID,0.0,VALID,93.304,VALID,164.798,VALID,22.116,VALID,78.0,VALID,0.672,
2017-05-26, 07:35:07,VALID,917.051,VALID,0.0,VALID,91.506,VALID,164.055,VALID,22.061,VALID,97.0,VALID,1.027,
2017-05-26, 07:36:07,VALID,917.062,VALID,0.0,VALID,91.421,VALID,165.205,VALID,21.958,VALID,101.0,VALID,0.8,
2017-05-26, 07:37:07,VALID,917.075,VALID,0.0,VALID,92.544,VALID,167.555,VALID,21.906,VALID,97.0,VALID,0.545,
2017-05-26, 07:38:07,VALID,917.074,VALID,0.0,VALID,92.977,VALID,169.784,VALID,21.9,VALID,92.0,VALID,0.308,
2017-05-26, 07:39:07,VALID,917.062,VALID,0.0,VALID,93.249,VALID,171.334,VALID,21.939,VALID,67.0,VALID,0.48,
2017-05-26, 07:40:07,VALID,917.054,VALID,0.0,VALID,93.561,VALID,169.935,VALID,21.972,VALID,81.0,VALID,0.233,
2017-05-26, 07:41:07,VALID,917.055,VALID,0.0,VALID,93.3,VALID,168.762,VALID,22.002,VALID,128.0,VALID,0.215,
2017-05-26, 07:42:07,VALID,917.063,VALID,0.0,VALID,92.528,VALID,170.163,VALID,22.041,VALID,125.0,VALID,0.608,
2017-05-26, 07:43:07,VALID,917.078,VALID,0.0,VALID,91.295,VALID,175.399,VALID,22.022,VALID,109.0,VALID,0.806,
2017-05-26, 07:44:07,VALID,917.085,VALID,0.0,VALID,91.494,VALID,181.981,VALID,22.027,VALID,97.0,VALID,0.734,
2017-05-26, 07:45:07,VALID,917.1,VALID,0.0,VALID,91.702,VALID,189.458,VALID,22.066,VALID,118.0,VALID,1.068,
2017-05-26, 07:46:07,VALID,917.116,VALID,0.0,VALID,91.462,VALID,197.259,VALID,22.068,VALID,117.0,VALID,0.946,
2017-05-26, 07:47:07,VALID,917.111,VALID,0.0,VALID,91.651,VALID,204.012,VALID,22.106,VALID,131.0,VALID,0.728,
2017-05-26, 07:48:07,VALID,917.089,VALID,0.0,VALID,92.282,VALID,208.177,VALID,22.176,VALID,124.0,VALID,0.721,
2017-05-26, 07:49:07,VALID,917.074,VALID,0.0,VALID,92.638,VALID,209.505,VALID,22.217,VALID,150.0,VALID,0.886,
2017-05-26, 07:50:07,VALID,917.06,VALID,0.0,VALID,91.593,VALID,210.559,VALID,22.17,VALID,148.0,VALID,0.87,
2017-05-26, 07:51:07,VALID,917.054,VALID,0.0,VALID,91.919,VALID,211.631,VALID,22.164,VALID,164.0,VALID,0.724,
2017-05-26, 07:52:07,VALID,917.054,VALID,0.0,VALID,91.662,VALID,212.055,VALID,22.151,VALID,152.0,VALID,0.875,
2017-05-26, 07:53:07,VALID,917.057,VALID,0.0,VALID,92.81,VALID,211.422,VALID,22.17,VALID,188.0,VALID,0.393,
2017-05-26, 07:54:07,VALID,917.055,VALID,0.0,VALID,93.206,VALID,210.087,VALID,22.207,VALID,182.0,VALID,0.56,
2017-05-26, 07:55:07,VALID,917.044,VALID,0.0,VALID,93.01,VALID,208.683,VALID,22.236,VALID,176.0,VALID,0.561,
2017-05-26, 07:56:07,VALID,917.036,VALID,0.0,VALID,92.702,VALID,207.439,VALID,22.252,VALID,157.0,VALID,1.129,
2017-05-26, 07:57:07,VALID,917.026,VALID,0.0,VALID,91.743,VALID,206.008,VALID,22.16,VALID,160.0,VALID,1.269,
2017-05-26, 07:58:07,VALID,917.022,VALID,0.0,VALID,93.048,VALID,205.186,VALID,22.136,VALID,156.0,VALID,0.559,
2017-05-26, 07:59:07,VALID,917.013,VALID,0.0,VALID,93.126,VALID,206.026,VALID,22.124,VALID,148.0,VALID,1.612,
2017-05-26, 08:00:07,VALID,917.022,VALID,0.0,VALID,92.73,VALID,207.811,VALID,21.949,VALID,145.0,VALID,1.854,
2017-05-26, 08:01:07,VALID,917.017,VALID,0.0,VALID,93.742,VALID,211.023,VALID,21.811,VALID,141.0,VALID,1.788,
2017-05-26, 08:02:07,VALID,917.043,VALID,0.0,VALID,94.103,VALID,212.94,VALID,21.724,VALID,147.0,VALID,1.851,
2017-05-26, 08:03:07,VALID,917.063,VALID,0.0,VALID,94.407,VALID,223.336,VALID,21.669,VALID,147.0,VALID,1.397,
2017-05-26, 08:04:07,VALID,917.081,VALID,0.0,VALID,95.073,VALID,233.286,VALID,21.726,VALID,155.0,VALID,1.175,
2017-05-26, 08:05:07,VALID,917.088,VALID,0.0,VALID,94.022,VALID,236.113,VALID,21.765,VALID,151.0,VALID,1.224,
2017-05-26, 08:06:07,VALID,917.101,VALID,0.0,VALID,92.768,VALID,251.844,VALID,21.792,VALID,150.0,VALID,1.212,
2017-05-26, 08:07:07,VALID,917.116,VALID,0.0,VALID,92.254,VALID,283.981,VALID,21.885,VALID,159.0,VALID,1.039,
2017-05-26, 08:08:07,VALID,917.11,VALID,0.0,VALID,90.768,VALID,268.96,VALID,22.029,VALID,150.0,VALID,0.951,
2017-05-26, 08:09:07,VALID,917.12,VALID,0.0,VALID,90.658,VALID,286.459,VALID,22.166,VALID,160.0,VALID,1.014,
2017-05-26, 08:10:06,VALID,917.124,VALID,0.0,VALID,89.803,VALID,279.504,VALID,22.297,VALID,164.0,VALID,0.977,
2017-05-26, 08:11:06,VALID,917.116,VALID,0.0,VALID,89.274,VALID,322.274,VALID,22.436,VALID,134.0,VALID,0.976,
2017-05-26, 08:12:06,VALID,917.128,VALID,0.0,VALID,89.362,VALID,338.787,VALID,22.599,VALID,148.0,VALID,0.925,
2017-05-26, 08:13:06,VALID,917.151,VALID,0.0,VALID,86.845,VALID,297.475,VALID,22.718,VALID,158.0,VALID,1.165,
2017-05-26, 08:14:06,VALID,917.183,VALID,0.0,VALID,85.964,VALID,260.579,VALID,22.714,VALID,166.0,VALID,1.116,
2017-05-26, 08:15:06,VALID,917.19,VALID,0.0,VALID,87.578,VALID,246.589,VALID,22.736,VALID,158.0,VALID,1.102,
2017-05-26, 08:16:06,VALID,917.201,VALID,0.0,VALID,86.541,VALID,245.333,VALID,22.683,VALID,156.0,VALID,1.553,
2017-05-26, 08:17:06,VALID,917.207,VALID,0.0,VALID,87.62,VALID,246.862,VALID,22.581,VALID,155.0,VALID,1.481,
2017-05-26, 08:18:06,VALID,917.204,VALID,0.0,VALID,87.973,VALID,246.069,VALID,22.492,VALID,172.0,VALID,1.23,
2017-05-26, 08:19:06,VALID,917.198,VALID,0.0,VALID,89.325,VALID,242.48,VALID,22.54,VALID,175.0,VALID,0.636,
2017-05-26, 08:20:06,VALID,917.177,VALID,0.0,VALID,89.418,VALID,236.714,VALID,22.612,VALID,163.0,VALID,1.27,
2017-05-26, 08:21:06,VALID,917.177,VALID,0.0,VALID,88.987,VALID,229.81,VALID,22.67,VALID,169.0,VALID,0.717,
2017-05-26, 08:22:06,VALID,917.182,VALID,0.0,VALID,89.398,VALID,221.421,VALID,22.722,VALID,158.0,VALID,1.212,
2017-05-26, 08:23:06,VALID,917.188,VALID,0.0,VALID,89.803,VALID,212.682,VALID,22.598,VALID,139.0,VALID,1.15,
2017-05-26, 08:24:06,VALID,917.198,VALID,0.0,VALID,90.913,VALID,203.303,VALID,22.496,VALID,139.0,VALID,1.17,
2017-05-26, 08:25:06,VALID,917.209,VALID,0.0,VALID,92.161,VALID,193.989,VALID,22.478,VALID,139.0,VALID,1.073,
2017-05-26, 08:26:06,VALID,917.226,VALID,0.0,VALID,92.508,VALID,185.119,VALID,22.488,VALID,146.0,VALID,1.166,
2017-05-26, 08:27:06,VALID,917.233,VALID,0.0,VALID,92.237,VALID,177.27,VALID,22.444,VALID,140.0,VALID,1.326,
2017-05-26, 08:28:06,VALID,917.261,VALID,0.0,VALID,92.73,VALID,171.458,VALID,22.393,VALID,155.0,VALID,1.283,
2017-05-26, 08:29:06,VALID,917.269,VALID,0.0,VALID,92.981,VALID,166.991,VALID,22.373,VALID,152.0,VALID,1.606,
2017-05-26, 08:30:06,VALID,917.265,VALID,0.0,VALID,92.586,VALID,163.278,VALID,22.291,VALID,152.0,VALID,1.82,
2017-05-26, 08:31:06,VALID,917.268,VALID,0.0,VALID,93.512,VALID,161.759,VALID,22.244,VALID,151.0,VALID,1.569,
2017-05-26, 08:32:06,VALID,917.263,VALID,0.0,VALID,93.59,VALID,162.297,VALID,22.199,VALID,146.0,VALID,1.723,
2017-05-26, 08:33:06,VALID,917.252,VALID,0.0,VALID,93.976,VALID,164.524,VALID,22.202,VALID,153.0,VALID,1.377,
2017-05-26, 08:34:06,VALID,917.261,VALID,0.0,VALID,94.234,VALID,168.451,VALID,22.247,VALID,150.0,VALID,1.574,
2017-05-26, 08:35:06,VALID,917.273,VALID,0.0,VALID,94.006,VALID,174.129,VALID,22.294,VALID,152.0,VALID,1.551,
2017-05-26, 08:36:06,VALID,917.265,VALID,0.0,VALID,93.658,VALID,181.413,VALID,22.323,VALID,150.0,VALID,1.614,
2017-05-26, 08:37:06,VALID,917.269,VALID,0.0,VALID,93.144,VALID,189.699,VALID,22.33,VALID,152.0,VALID,1.669,
2017-05-26, 08:38:06,VALID,917.29,VALID,0.0,VALID,93.142,VALID,200.741,VALID,22.322,VALID,150.0,VALID,1.495,
2017-05-26, 08:39:06,VALID,917.297,VALID,0.0,VALID,93.311,VALID,218.298,VALID,22.358,VALID,144.0,VALID,1.391,
2017-05-26, 08:40:06,VALID,917.302,VALID,0.0,VALID,92.796,VALID,240.698,VALID,22.414,VALID,143.0,VALID,1.401,
2017-05-26, 08:41:06,VALID,917.327,VALID,0.0,VALID,91.96,VALID,310.262,VALID,22.469,VALID,156.0,VALID,1.416,
2017-05-26, 08:42:06,VALID,917.333,VALID,0.0,VALID,92.336,VALID,330.855,VALID,22.523,VALID,162.0,VALID,1.365,
2017-05-26, 08:43:06,VALID,917.346,VALID,0.0,VALID,91.491,VALID,307.295,VALID,22.565,VALID,153.0,VALID,1.119,
2017-05-26, 08:44:06,VALID,917.356,VALID,0.0,VALID,92.638,VALID,297.829,VALID,22.7,VALID,164.0,VALID,0.965,
2017-05-26, 08:45:06,VALID,917.364,VALID,0.0,VALID,91.502,VALID,300.188,VALID,22.842,VALID,158.0,VALID,1.124,
2017-05-26, 08:46:06,VALID,917.36,VALID,0.0,VALID,89.71,VALID,301.688,VALID,22.938,VALID,160.0,VALID,1.163,
2017-05-26, 08:47:06,VALID,917.366,VALID,0.0,VALID,90.907,VALID,311.494,VALID,23.018,VALID,155.0,VALID,1.322,
2017-05-26, 08:48:06,VALID,917.36,VALID,0.0,VALID,88.631,VALID,329.577,VALID,23.013,VALID,155.0,VALID,1.371,
2017-05-26, 08:49:06,VALID,917.357,VALID,0.0,VALID,89.118,VALID,323.454,VALID,23.02,VALID,153.0,VALID,1.919,
2017-05-26, 08:50:06,VALID,917.378,VALID,0.0,VALID,88.59,VALID,322.355,VALID,23.056,VALID,173.0,VALID,1.388,
2017-05-26, 08:51:06,VALID,917.392,VALID,0.0,VALID,87.849,VALID,318.969,VALID,23.143,VALID,170.0,VALID,1.189,
2017-05-26, 08:52:06,VALID,917.415,VALID,0.0,VALID,88.168,VALID,309.695,VALID,23.225,VALID,162.0,VALID,1.371,
2017-05-26, 08:53:06,VALID,917.422,VALID,0.0,VALID,88.743,VALID,303.127,VALID,23.278,VALID,163.0,VALID,1.554,
2017-05-26, 08:54:06,VALID,917.434,VALID,0.0,VALID,88.267,VALID,301.247,VALID,23.279,VALID,158.0,VALID,1.448,
2017-05-26, 08:55:06,VALID,917.425,VALID,0.0,VALID,87.632,VALID,296.0,VALID,23.269,VALID,176.0,VALID,1.349,
2017-05-26, 08:56:06,VALID,917.416,VALID,0.0,VALID,87.753,VALID,289.962,VALID,23.317,VALID,169.0,VALID,1.432,
2017-05-26, 08:57:06,VALID,917.42,VALID,0.0,VALID,87.842,VALID,285.017,VALID,23.308,VALID,169.0,VALID,1.516,
2017-05-26, 08:58:06,VALID,917.405,VALID,0.0,VALID,87.745,VALID,281.669,VALID,23.256,VALID,156.0,VALID,1.605,
2017-05-26, 08:59:06,VALID,917.41,VALID,0.0,VALID,87.608,VALID,279.295,VALID,23.178,VALID,160.0,VALID,1.053,
2017-05-26, 09:00:06,VALID,917.402,VALID,0.0,VALID,87.027,VALID,276.303,VALID,23.179,VALID,158.0,VALID,1.712,
2017-05-26, 09:01:06,VALID,917.393,VALID,0.0,VALID,87.297,VALID,273.996,VALID,23.169,VALID,172.0,VALID,1.131,
2017-05-26, 09:02:06,VALID,917.375,VALID,0.0,VALID,88.026,VALID,271.344,VALID,23.281,VALID,174.0,VALID,0.973,
2017-05-26, 09:03:06,VALID,917.359,VALID,0.0,VALID,87.969,VALID,270.456,VALID,23.381,VALID,176.0,VALID,1.079,
2017-05-26, 09:04:06,VALID,917.342,VALID,0.0,VALID,86.822,VALID,272.295,VALID,23.458,VALID,176.0,VALID,1.153,
2017-05-26, 09:05:06,VALID,917.336,VALID,0.0,VALID,86.562,VALID,275.979,VALID,23.509,VALID,164.0,VALID,1.226,
2017-05-26, 09:06:06,VALID,917.313,VALID,0.0,VALID,87.829,VALID,284.799,VALID,23.525,VALID,166.0,VALID,0.822,
2017-05-26, 09:07:06,VALID,917.309,VALID,0.0,VALID,87.095,VALID,297.2,VALID,23.566,VALID,149.0,VALID,1.265,
2017-05-26, 09:08:06,VALID,917.29,VALID,0.0,VALID,85.667,VALID,334.017,VALID,23.511,VALID,141.0,VALID,1.689,
2017-05-26, 09:09:06,VALID,917.292,VALID,0.0,VALID,85.876,VALID,344.475,VALID,23.421,VALID,150.0,VALID,1.499,
2017-05-26, 09:10:06,VALID,917.304,VALID,0.0,VALID,86.196,VALID,371.374,VALID,23.43,VALID,140.0,VALID,1.439,
2017-05-26, 09:11:06,VALID,917.322,VALID,0.0,VALID,86.216,VALID,368.103,VALID,23.51,VALID,152.0,VALID,1.633,
2017-05-26, 09:12:06,VALID,917.335,VALID,0.0,VALID,86.125,VALID,390.515,VALID,23.529,VALID,154.0,VALID,1.682,
2017-05-26, 09:13:06,VALID,917.333,VALID,0.0,VALID,85.901,VALID,414.483,VALID,23.556,VALID,156.0,VALID,1.682,
2017-05-26, 09:14:06,VALID,917.331,VALID,0.0,VALID,84.833,VALID,467.839,VALID,23.646,VALID,159.0,VALID,1.695,
2017-05-26, 09:15:06,VALID,917.333,VALID,0.0,VALID,85.594,VALID,635.317,VALID,23.776,VALID,155.0,VALID,1.602,
2017-05-26, 09:16:06,VALID,917.322,VALID,0.0,VALID,84.56,VALID,673.709,VALID,23.846,VALID,159.0,VALID,1.306,
2017-05-26, 09:17:06,VALID,917.315,VALID,0.0,VALID,85.033,VALID,790.375,VALID,24.01,VALID,154.0,VALID,1.059,
2017-05-26, 09:18:06,VALID,917.297,VALID,0.0,VALID,84.951,VALID,844.244,VALID,24.228,VALID,170.0,VALID,0.965,
2017-05-26, 09:19:06,VALID,917.284,VALID,0.0,VALID,83.337,VALID,800.129,VALID,24.48,VALID,160.0,VALID,1.244,
2017-05-26, 09:20:06,VALID,917.249,VALID,0.0,VALID,81.829,VALID,750.459,VALID,24.659,VALID,157.0,VALID,1.502,
2017-05-26, 09:21:06,VALID,917.208,VALID,0.0,VALID,80.726,VALID,627.602,VALID,24.596,VALID,147.0,VALID,1.261,
2017-05-26, 09:22:06,VALID,917.184,VALID,0.0,VALID,80.618,VALID,753.265,VALID,24.498,VALID,154.0,VALID,1.412,
2017-05-26, 09:23:06,VALID,917.176,VALID,0.0,VALID,78.716,VALID,881.308,VALID,24.478,VALID,154.0,VALID,1.683,
2017-05-26, 09:24:06,VALID,917.188,VALID,0.0,VALID,79.42,VALID,908.716,VALID,24.592,VALID,173.0,VALID,1.245,
